Location: Leipzig
(51.3392°N, 12.3528°E)
Time: 03:16:18
(UTC+02:00)

ISS - Visible Passes

Search period start: 25 May 2017 00:00
Search period end: 04 June 2017 00:00
Orbit: 402 x 409 km, 51.6° (Epoch: 25 May)

Date Brightness Start Highest point End Pass type
(mag) Time Alt. Az. Time Alt. Az. Time Alt. Az.
25 May -3.8 01:06:26 10° W 01:09:44 83° N 01:13:02 10° E visible
25 May -3.9 02:42:58 10° W 02:46:14 63° SSW 02:49:28 10° ESE visible
25 May -2.3 04:19:58 10° W 04:22:17 18° SW 04:24:36 10° S visible
25 May -3.4 22:38:13 10° SW 22:41:19 39° SSE 22:44:26 10° E visible
26 May -3.9 00:14:23 10° W 00:17:41 88° N 00:20:59 10° E visible
26 May -4.0 01:50:55 10° W 01:54:13 80° SSW 01:57:31 10° ESE visible
26 May -2.9 03:27:36 10° W 03:30:27 27° SSW 03:33:16 10° SSE visible
26 May -3.9 23:22:20 10° WSW 23:25:39 80° SSE 23:28:56 10° E visible
27 May -3.9 00:58:52 10° W 01:02:11 88° NNE 01:05:29 10° E visible
27 May -3.4 02:35:26 10° W 02:38:32 39° SSW 02:41:38 10° SE visible
27 May -3.8 22:30:21 10° WSW 22:33:37 62° SSE 22:36:53 10° E visible
28 May -3.8 00:06:48 10° W 00:10:06 83° N 00:13:25 10° E visible
28 May -3.8 01:43:19 10° W 01:46:34 56° SSW 01:47:25 40° SSE visible
28 May -3.8 23:14:42 10° W 23:18:01 85° N 23:21:19 10° E visible
29 May -4.0 00:51:15 10° W 00:54:32 74° SSW 00:56:00 30° ESE visible
29 May -1.6 02:28:01 10° W 02:28:36 13° W 02:28:36 13° W visible
29 May -3.9 22:22:37 10° WSW 22:25:56 85° SSE 22:29:14 10° E visible
29 May -3.9 23:59:09 10° W 00:02:28 89° S 00:05:06 15° E visible
30 May -2.5 01:35:44 10° W 01:37:42 27° WSW 01:37:42 27° WSW visible
30 May -3.8 23:07:03 10° W 23:10:21 84° N 23:13:40 10° E visible
31 May -3.7 00:43:35 10° W 00:46:48 49° SSW 00:47:00 48° S visible
31 May -3.7 22:14:55 10° W 22:18:14 83° N 22:21:33 10° E visible
31 May -3.9 23:51:27 10° W 23:54:44 67° SSW 23:56:24 26° ESE visible
01 Jun -1.5 01:28:21 10° W 01:29:01 13° WSW 01:29:01 13° WSW visible
01 Jun -3.9 22:59:19 10° W 23:02:38 84° S 23:05:50 11° ESE visible
02 Jun -2.7 00:35:57 10° W 00:38:28 28° SW 00:38:28 28° SW visible
02 Jun -3.8 22:07:11 10° W 22:10:30 86° N 22:13:48 10° E visible
02 Jun -3.4 23:43:43 10° W 23:46:53 43° SSW 23:47:56 31° SSE visible
03 Jun -3.7 22:51:33 10° W 22:54:49 60° SSW 22:57:28 14° ESE visible
